CZ-4C R/B, 57655

Orbit data source: Space-Track

CZ-4C R/B, 57655 is space debris in SSO originally from a launch on Sun, 20 Aug 2023 UTC launched from the Jiuquan Satellite Launch Center, China (JSC). Debris objects in space refer to the collection of defunct objects orbiting the Earth. Examples of debris include non-operational satellites, rocket bodies, and fragments generated from explosions, collisions, or faulty payload assembly.

Loading next visibility...
Identifier
57655, 2023-123B
Orbit
SSO
Country
Flag of CNCN / PRC
Related business
Manufacturer
SAST
Mission
Spacecraft
Bus & Motor
CZ-4 STAGE 3, Unknown motor
Mass
~1,000 kg wet, ~1,000 kg dry
Launch date (UTC)
2023-08-20 (2 years ago)
Launch vehicle
Unknown
Launch site
Jiuquan Satellite Launch Center, China (JSC)
Object type
Payload
Rocket body
Debris
Shape & HBR
Cyl, 1.4 m
Radar Cross Section
7.676 m², Large (>1 m²)

Expand to show TLE details & history
Last TLE update: 10 hours ago

TLE from 10 hours ago
0 CZ-4C R/B
1 57655U 23123B   25260.88988440  .00012552  00000-0  39666-3 0  9991
2 57655  97.9419 224.4149 0067061 316.9346  42.6657 15.30751554115291
Epoch: 2025-09-17T21:21Z
TLE epoch observation values (Epoch: 2025-09-17T21:21:26.012Z)
Latitude
0.00002°
Longitude
-93.00284°
Altitude
443.006 km
Speed
7.665 km/s
True Right ascension
14h 57m 39s
True Declination
0° 00' 00"
Sunlit
Object was in daylight at epoch
Visualization orbit readout
Latitude
Unknown
Longitude
Unknown
Altitude
Unknown
Speed
Unknown
Apparent Right ascension
Unknown
Apparent Declination
Unknown
Sunlit
N/A
Visualization observer readout
Local Sidereal Time
00:26:05
Azimuth
Unknown
Elevation
Unknown
Doppler factor
Unknown
Orbital elements
Apogee altitude
516.472 km
Perigee altitude
424.616 km
Semi-major axis
6,848.681 km
Eccentricity
0.00671
Inclination
97.9419°
RAAN
224.4149°
Arg. of periapsis
316.9346°
True anomaly
43.18972°
Mean anomaly
42.6657°
Eccentric anomaly
42.92739°
Mean motion
3.82942 °/min
Orbital period
94.01 mins
BSTAR
0.00039666
Loading maneuver chart data...
Computing Atmospheric mass density...
Loading historical data...
Loading historical data...
Loading historical data...
Loading historical data...
Loading historical data...
Loading historical data...
Loading historical data...
Other satellites on launch #123 in the year 2023 (2023-08-20 UTC)

Documentation

Showing up to 5 results
|